Rankin, MI

7:34 PM EST on December 02, 2016 (GMT -0500)
Fenton and Cook Roads | | Change Station

Elev 856 ft 42.90 °N, 83.69 °W | Updated 52 days ago

Overcast
Overcast
65.0 °F
Feels Like 65.0 °F
N
0.0
Wind Variable Wind from SW
Gusts 0.0 mph

Today
High -- | Low -- °F
--% Chance of Precip.
Yesterday
High -- | Low -- °F
Precip. -- in
Pressure 30.18 in
Visibility 10.0 miles
Clouds Overcast 2900 ft
Dew Point 53 °F
Humidity 66%
Rainfall in
Snow Depth Not available.
7:47 AM 5:01 PM
Waxing Crescent, 11% visible
METAR KFNT 022353Z 27008KT 10SM OVC029 03/M02 A3016 RMK AO2 SLP220 T00281022 10033 20022 53006
Pressure 30.18 in
Visibility 10.0 miles
Clouds Overcast 2900 ft
Dew Point 53 °F
Humidity 66%
Rainfall in
Snow Depth Not available.
7:47 AM 5:01 PM
Waxing Crescent, 11% visible
METAR KFNT 022353Z 27008KT 10SM OVC029 03/M02 A3016 RMK AO2 SLP220 T00281022 10033 20022 53006

10-Day Weather Forecast

Almanac

Astronomy

Dec. 02, 2016 Rise Set
Actual Time
Civil Twilight
Nautical Twilight
Astronomical Twilight
Moon
Length of Visible Light
Length of Day
Tomorrow will be .
, % of the Moon is Illuminated

Today's Extremes

State Highs State Lows

Community

WunderPhotos

Upload Photos

1,955,381 photos uploaded!

WunderBlog® & News

Nearby

Air Quality

  Air Quality AQ Index Pollutant
Not available.

Snow Depth

Station Depth Elevation

Earthquake Activity

City Distance Mag. Time & Date
Minimum magnitude displayed is 2.5.

Coastal Water Temperatures

Place Temperature

Stations

Nearby Weather Stations

Station Location Temp. Windchill Dew Point Humidity Wind Precip. Elev Updated Type
                   

Watches & Warnings

There are currently no watches in effect.